Total_Precipitation_Accumulation
1.04 0.99 0.86 0.90 0.85 0.87 0.95 0.99 1.00 1.05 1.12 1.07 1.01 1.03 1.05 1.00 0.92 0.90 1.13 1.61 2.34 2.89 3.01 2.91 2.54 2.30 2.12 1.87 1.85 2.04 2.24 2.32 2.25 2.18 2.29 2.40 2.34 2.17 2.11 2.05 2.07 1.99 1.94
0.96 0.99 0.96 0.99 0.98 0.96 0.95 0.94 0.92 1.06 1.11 1.13 1.10 1.04 1.01 0.91 0.90 0.99 1.17 1.31 1.50 2.02 2.80 3.04 2.87 2.65 2.46 2.14 1.97 2.04 2.15 2.15 2.11 2.13 2.18 2.20 2.13 1.92 1.84 2.00 2.17 1.99 1.87
0.92 0.96 0.99 1.01 1.02 1.02 0.99 1.00 1.03 1.12 1.14 1.23 1.26 1.09 1.01 0.94 0.89 0.96 1.06 1.17 1.01 1.11 1.76 2.49 2.81 2.71 2.67 2.48 2.19 2.13 2.16 2.18 2.06 2.18 2.16 2.14 2.00 1.91 1.85 2.07 2.23 2.10 1.86
0.91 1.01 1.03 1.05 1.11 1.03 1.01 1.11 1.18 1.27 1.30 1.36 1.36 1.17 0.97 1.04 0.98 0.97 1.10 1.12 1.10 1.03 1.23 1.56 1.96 2.26 2.69 2.87 2.67 2.44 2.28 2.17 1.98 2.08 2.11 2.04 1.94 1.91 1.88 2.11 2.14 2.12 1.99
1.09 1.20 1.24 1.25 1.26 1.26 1.20 1.11 1.16 1.29 1.43 1.44 1.27 1.18 1.07 1.09 1.10 1.06 1.24 1.23 1.21 1.21 1.27 1.19 1.26 1.55 2.13 2.67 2.82 2.75 2.50 2.20 1.99 1.99 2.00 1.86 1.92 1.97 1.87 1.96 1.97 1.97 1.97
1.34 1.50 1.50 1.40 1.45 1.56 1.62 1.43 1.48 1.42 1.37 1.47 1.30 1.24 1.21 1.15 1.15 1.22 1.26 1.37 1.47 1.32 1.32 1.25 1.18 1.04 1.37 1.85 2.30 2.70 2.77 2.57 2.30 2.20 2.20 1.89 1.84 1.93 1.88 1.83 1.80 1.82 1.83
1.69 1.89 1.92 1.84 1.82 1.84 1.81 1.73 1.89 1.83 1.55 1.46 1.68 1.67 1.49 1.30 1.24 1.24 1.30 1.53 1.63 1.54 1.56 1.48 1.37 1.22 1.11 1.13 1.46 2.23 2.70 2.87 2.80 2.54 2.45 2.21 1.85 1.75 1.74 1.69 1.69 1.76 1.83
1.91 1.96 2.21 2.30 2.24 2.41 2.41 2.18 2.31 2.34 1.95 1.70 1.99 2.32 2.03 1.79 1.37 1.28 1.40 1.46 1.54 1.63 1.68 1.53 1.39 1.29 1.26 1.23 1.11 1.55 2.02 2.59 2.89 2.65 2.64 2.56 2.02 1.72 1.61 1.61 1.68 1.72 1.82
2.08 2.14 2.27 2.43 2.42 2.50 2.66 2.72 2.62 2.73 2.54 2.12 1.98 2.31 2.25 2.08 1.86 1.50 1.43 1.50 1.64 1.70 1.73 1.71 1.53 1.28 1.27 1.35 1.18 1.11 1.34 1.66 2.27 2.60 2.71 2.82 2.37 1.89 1.61 1.59 1.62 1.58 1.74
2.31 2.40 2.43 2.52 2.53 2.54 2.65 2.76 2.70 2.85 2.97 2.56 2.21 1.99 1.83 1.82 2.01 1.84 1.58 1.52 1.65 1.67 1.67 1.70 1.73 1.56 1.39 1.43 1.32 1.09 1.09 1.19 1.60 2.24 2.57 2.84 2.70 2.20 1.77 1.68 1.74 1.68 1.73
2.43 2.48 2.55 2.70 2.69 2.67 2.62 2.82 2.88 2.97 2.90 2.82 2.66 2.47 2.30 2.06 1.74 1.88 1.92 1.74 1.62 1.51 1.56 1.70 1.86 1.80 1.60 1.54 1.62 1.28 1.04 1.06 1.21 1.77 2.23 2.77 2.93 2.57 2.26 2.15 2.00 1.89 1.73
2.48 2.35 2.29 2.47 2.54 2.58 2.55 2.71 2.86 2.99 2.95 2.97 2.88 2.58 2.56 2.45 2.11 2.08 1.93 1.78 1.80 1.61 1.52 1.60 1.67 1.66 1.65 1.62 1.52 1.48 1.19 1.04 1.10 1.38 1.81 2.26 2.85 2.84 2.70 2.66 2.42 2.30 2.11
2.31 2.32 2.22 2.24 2.30 2.27 2.28 2.37 2.42 2.47 2.61 2.81 2.71 2.47 2.41 2.24 2.23 2.32 2.22 1.95 1.78 1.54 1.54 1.51 1.49 1.51 1.49 1.53 1.58 1.63 1.25 1.03 1.03 1.18 1.51 1.80 2.23 2.70 2.85 2.74 2.65 2.69 2.69
2.02 2.08 2.07 2.03 2.10 2.17 2.15 2.24 2.26 2.25 2.27 2.33 2.28 2.39 2.44 2.28 2.21 2.20 2.27 2.42 2.16 1.90 1.70 1.52 1.49 1.54 1.50 1.46 1.59 1.64 1.32 1.15 1.04 1.05 1.20 1.49 1.82 2.27 2.64 2.64 2.68 2.84 2.90
1.57 1.63 1.69 1.78 1.91 2.00 2.05 2.18 2.26 2.24 2.16 2.12 2.22 2.30 2.24 2.18 2.16 2.08 2.10 2.28 2.39 2.23 2.04 1.82 1.65 1.59 1.60 1.51 1.60 1.42 1.37 1.31 1.14 1.10 1.12 1.10 1.29 1.64 1.93 2.16 2.39 2.37 2.50
1.22 1.27 1.37 1.56 1.82 1.95 1.99 2.08 2.16 2.21 2.21 2.14 2.21 2.31 2.34 2.31 2.32 2.27 2.16 2.14 2.10 2.16 2.07 1.82 1.63 1.54 1.68 1.55 1.67 1.42 1.38 1.56 1.33 1.24 1.16 1.04 1.04 1.13 1.28 1.51 1.80 1.95 1.96
1.09 1.17 1.23 1.40 1.57 1.75 1.95 2.11 2.12 2.10 2.11 2.08 2.01 2.11 2.23 2.27 2.39 2.42 2.44 2.34 2.19 2.14 2.08 1.89 1.69 1.58 1.77 1.78 1.68 1.58 1.44 1.38 1.38 1.36 1.23 1.17 1.11 1.02 1.06 1.16 1.41 1.60 1.74
0.95 1.00 1.17 1.37 1.50 1.59 1.62 1.72 1.78 1.81 1.85 1.92 1.90 1.87 1.93 1.98 2.13 2.28 2.38 2.36 2.35 2.23 2.16 2.16 1.97 1.74 1.66 1.72 1.76 1.81 1.70 1.46 1.41 1.50 1.42 1.32 1.25 1.13 1.03 1.01 1.12 1.20 1.31
0.99 0.99 1.11 1.25 1.30 1.38 1.43 1.47 1.56 1.65 1.67 1.64 1.68 1.62 1.61 1.70 1.83 1.97 2.06 2.15 2.28 2.31 2.33 2.31 2.23 2.04 1.79 1.78 1.85 1.86 1.87 1.91 1.64 1.55 1.55 1.49 1.43 1.37 1.25 1.08 1.02 1.03 1.04
1.05 1.07 1.19 1.24 1.25 1.25 1.38 1.42 1.46 1.45 1.39 1.31 1.34 1.32 1.35 1.39 1.48 1.65 1.79 1.99 2.18 2.30 2.37 2.39 2.34 2.12 1.94 1.87 1.84 1.88 1.98 2.03 1.99 1.74 1.63 1.54 1.61 1.57 1.39 1.24 1.11 1.07 1.07
1.06 1.12 1.18 1.25 1.28 1.28 1.33 1.40 1.34 1.23 1.19 1.15 1.10 0.99 1.01 1.10 1.14 1.25 1.27 1.54 1.80 2.03 2.16 2.23 2.22 2.08 1.88 1.78 1.65 1.69 1.83 2.01 2.07 2.01 1.90 1.63 1.55 1.49 1.44 1.39 1.26 1.17 1.11
0.95 1.00 1.05 1.19 1.30 1.18 1.31 1.29 1.15 1.02 0.97 1.01 0.96 0.87 0.86 0.91 0.86 0.85 0.88 1.11 1.41 1.58 1.76 1.95 2.02 1.90 1.74 1.68 1.73 1.71 1.72 1.78 1.82 1.73 1.71 1.70 1.61 1.52 1.45 1.40 1.41 1.36 1.25
0.89 0.92 0.90 1.04 1.13 1.20 1.15 0.98 1.01 0.96 0.95 0.97 0.98 0.99 0.89 0.85 0.94 0.84 0.80 0.90 0.98 1.10 1.26 1.53 1.74 1.73 1.83 1.76 1.67 1.59 1.61 1.65 1.64 1.68 1.69 1.68 1.58 1.48 1.38 1.34 1.48 1.39 1.37
0.80 0.84 0.84 0.82 0.89 1.03 1.02 0.85 0.88 0.85 0.95 1.02 1.04 1.11 1.11 1.04 1.02 1.09 1.03 1.03 0.99 0.93 1.04 0.95 1.13 1.51 1.67 1.75 1.72 1.75 1.84 1.77 1.61 1.63 1.64 1.65 1.57 1.45 1.31 1.23 1.33 1.24 1.17
0.77 0.75 0.79 0.80 0.83 0.88 0.88 0.81 0.83 0.86 0.99 0.99 0.94 1.06 1.10 1.05 1.12 1.20 1.29 1.33 1.25 1.08 1.22 1.23 1.12 1.24 1.41 1.47 1.59 1.68 1.74 1.66 1.60 1.50 1.38 1.35 1.30 1.33 1.37 1.28 1.24 1.28 1.19
0.77 0.76 0.73 0.70 0.71 0.72 0.81 0.73 0.83 0.91 0.96 0.96 0.97 1.03 1.20 1.12 1.10 1.07 1.13 1.25 1.23 1.08 0.97 1.01 0.98 0.89 0.83 0.96 1.18 1.32 1.60 1.72 1.66 1.55 1.34 1.27 1.30 1.29 1.32 1.23 1.13 1.16 1.15